EWG7XR LOWW-EDDK

Flight info

Callsign EWG7XR
Flight time N/A
Altitude 36000
Route BUWUT2B/16 BUWUT DCT DITIS DCT RAPET T843 PILAM/N0383F320 T843 VELIS DCT MASEK T841 ERNEP ERNEP1B
Aircraft A319/M-SDE2E3FGIJ1RWXYZ/EB1

Departure

Time N/A
Airport Vienna International Airport (LOWW)

Arrival

Time 2026-05-06 19:38
Airport Cologne Bonn Airport (EDDK)
Time Latitude Longitude Altitude Speed Heading
2026-05-06 19:19 50.87211 8.81770 15366 ft 327 kts 284°
2026-05-06 19:20 50.87866 8.78272 15141 ft 326 kts 284°
2026-05-06 19:20 50.88499 8.74876 14918 ft 325 kts 284°
2026-05-06 19:20 50.89138 8.71449 14697 ft 325 kts 284°
2026-05-06 19:20 50.89775 8.68023 14483 ft 324 kts 284°
2026-05-06 19:21 50.90408 8.64610 14262 ft 323 kts 284°
2026-05-06 19:21 50.91041 8.61203 14028 ft 322 kts 284°
2026-05-06 19:21 50.91670 8.57808 13790 ft 321 kts 284°
2026-05-06 19:21 50.92296 8.54425 13541 ft 320 kts 284°
2026-05-06 19:22 50.92707 8.52184 13368 ft 319 kts 284°
2026-05-06 19:22 50.93323 8.48813 13115 ft 317 kts 284°
2026-05-06 19:22 50.93937 8.45465 12852 ft 315 kts 284°
2026-05-06 19:22 50.94547 8.42132 12583 ft 314 kts 284°
2026-05-06 19:23 50.95154 8.38808 12326 ft 313 kts 284°
2026-05-06 19:23 50.95763 8.35493 12051 ft 313 kts 284°
2026-05-06 19:23 50.96340 8.32177 11714 ft 311 kts 279°
2026-05-06 19:23 50.96505 8.28791 11390 ft 307 kts 265°
2026-05-06 19:24 50.96146 8.25480 11065 ft 304 kts 252°
2026-05-06 19:24 50.95312 8.22430 10785 ft 302 kts 241°
2026-05-06 19:24 50.94334 8.19490 10533 ft 299 kts 242°
2026-05-06 19:24 50.93376 8.16591 10286 ft 295 kts 241°
2026-05-06 19:25 50.92432 8.13731 10039 ft 291 kts 241°
2026-05-06 19:25 50.91504 8.10914 9874 ft 285 kts 241°
2026-05-06 19:25 50.90606 8.08186 9843 ft 273 kts 241°
2026-05-06 19:25 50.89747 8.05577 9843 ft 261 kts 241°
2026-05-06 19:26 50.88920 8.03082 9841 ft 251 kts 241°
2026-05-06 19:26 50.88115 8.00671 9855 ft 245 kts 243°
2026-05-06 19:26 50.87310 7.98255 9853 ft 251 kts 244°
2026-05-06 19:26 50.86490 7.95801 9846 ft 253 kts 244°
2026-05-06 19:27 50.85666 7.93340 9841 ft 253 kts 244°
2026-05-06 19:27 50.84847 7.90870 9834 ft 254 kts 244°
2026-05-06 19:27 50.84022 7.88381 9658 ft 255 kts 244°
2026-05-06 19:27 50.83203 7.85917 9502 ft 252 kts 244°
2026-05-06 19:28 50.82386 7.83468 9297 ft 251 kts 244°
2026-05-06 19:28 50.81573 7.81035 9100 ft 250 kts 244°
2026-05-06 19:28 50.80759 7.78599 8900 ft 250 kts 243°
2026-05-06 19:28 50.79948 7.76183 8691 ft 249 kts 243°
2026-05-06 19:29 50.79134 7.73767 8485 ft 248 kts 243°
2026-05-06 19:29 50.78338 7.71396 8248 ft 247 kts 244°
2026-05-06 19:29 50.77525 7.68978 7938 ft 247 kts 244°
2026-05-06 19:29 50.76722 7.66587 7790 ft 246 kts 244°
2026-05-06 19:30 50.75930 7.64238 7629 ft 245 kts 244°
2026-05-06 19:30 50.75121 7.61836 7452 ft 244 kts 243°
2026-05-06 19:30 50.74338 7.59506 7272 ft 243 kts 244°
2026-05-06 19:30 50.73546 7.57169 6933 ft 241 kts 244°
2026-05-06 19:31 50.72760 7.54829 6572 ft 241 kts 243°
2026-05-06 19:31 50.71962 7.52477 6211 ft 239 kts 242°
2026-05-06 19:31 50.70399 7.47872 5446 ft 237 kts 243°
2026-05-06 19:32 50.69613 7.45620 5058 ft 237 kts 243°
2026-05-06 19:32 50.68845 7.43361 4789 ft 229 kts 249°
2026-05-06 19:32 50.68654 7.40996 4531 ft 214 kts 287°
2026-05-06 19:32 50.69399 7.39099 4267 ft 200 kts 325°
2026-05-06 19:33 50.70581 7.38048 4009 ft 191 kts 328°
2026-05-06 19:33 50.71563 7.36708 3769 ft 183 kts 319°
2026-05-06 19:33 50.72469 7.35383 3548 ft 175 kts 320°
2026-05-06 19:33 50.73354 7.34102 3327 ft 169 kts 320°
2026-05-06 19:34 50.74204 7.32878 3173 ft 162 kts 320°
2026-05-06 19:34 50.75026 7.31697 3074 ft 159 kts 320°
2026-05-06 19:34 50.75843 7.30523 2927 ft 158 kts 320°
2026-05-06 19:34 50.76655 7.29355 2734 ft 157 kts 320°
2026-05-06 19:35 50.77463 7.28193 2521 ft 157 kts 320°
2026-05-06 19:35 50.78268 7.27034 2313 ft 156 kts 320°
2026-05-06 19:35 50.79066 7.25884 2104 ft 155 kts 320°
2026-05-06 19:35 50.79862 7.24737 1888 ft 154 kts 320°
2026-05-06 19:36 50.80639 7.23617 1682 ft 148 kts 319°
2026-05-06 19:36 50.81369 7.22564 1476 ft 137 kts 319°
2026-05-06 19:36 50.82045 7.21588 1293 ft 130 kts 318°
2026-05-06 19:36 50.82698 7.20646 1106 ft 127 kts 318°
2026-05-06 19:37 50.83350 7.19704 925 ft 126 kts 319°
2026-05-06 19:37 50.84000 7.18764 765 ft 127 kts 318°
2026-05-06 19:37 50.84662 7.17801 594 ft 130 kts 318°
2026-05-06 19:37 50.85321 7.16849 414 ft 127 kts 319°
2026-05-06 19:38 50.85959 7.15926 302 ft 117 kts 319°
2026-05-06 19:38 50.86466 7.15203 281 ft 83 kts 317°
2026-05-06 19:38 50.86781 7.14736 267 ft 33 kts 314°
2026-05-06 19:38 50.86875 7.14432 260 ft 24 kts 281°
2026-05-06 19:39 50.86895 7.14274 257 ft 11 kts 279°
2026-05-06 19:39 50.86915 7.14122 255 ft 16 kts 291°
2026-05-06 19:39 50.86999 7.13964 247 ft 23 kts 315°
2026-05-06 19:39 50.87116 7.13797 241 ft 15 kts 318°
2026-05-06 19:40 50.87196 7.13684 238 ft 12 kts 317°
2026-05-06 19:40 50.87238 7.13623 237 ft 4 kts 317°
2026-05-06 19:40 50.87282 7.13560 236 ft 13 kts 318°
2026-05-06 19:40 50.87365 7.13441 232 ft 20 kts 317°
2026-05-06 19:41 50.87488 7.13263 233 ft 29 kts 317°
2026-05-06 19:41 50.87629 7.13056 233 ft 23 kts 316°
2026-05-06 19:41 50.87720 7.12924 233 ft 13 kts 318°
2026-05-06 19:41 50.87793 7.12783 234 ft 19 kts 269°
2026-05-06 19:42 50.87833 7.12614 232 ft 8 kts 323°
2026-05-06 19:42 50.87857 7.12544 232 ft 10 kts 286°
2026-05-06 19:42 50.87872 7.12465 232 ft 2 kts 289°
2026-05-06 19:42 50.87873 7.12461 232 ft 0 kts 289°